Zurück zum Katalog

STEX

AktivWissenschaftPO
NORAD 25489·PAYLOAD·🇺🇸 United States

Gestartet Oct 3, 1998 von Vandenberg Space Force Base

Loading…

Nächste Überflüge (nächste 24 Stunden)

TLE

AktuellSource: Space-Track

Epoche: Sep 14, 2026, 12:00 UTC

1 25489U 98055A   26257.50031964  .00000319  00000-0  73729-4 0  9990
2 25489  84.9787 281.5971 0010701 122.5464 237.6774 14.51910733476297

Verfolge STEX in Echtzeit mit AllMySat

Download on the App Store